Amado Nervo National Airport
MMEP : now visible

Airfield :











YOU CAN JOIN US ON...

 
LOGIN :

Register | Disclaimer

   EN    FR    IT 

 









Legend :    VFR   Marginal VFR   IFR   Intensive IFR   Very Intensive IFR
Visi :
Ceiling :
>= 8 km
>= 3000ft
5 to 8 km
1000 to 3000 ft
1500m to 5 km
500 to 1000 ft
800 to 1500m
200 to 500 ft
< 800m
< 200 ft
Symbols :   Thunderstorms  Fog  Heavy snow  Heavy precipitations  Wind > 20 kt






- Airport Elevation : 3020 ft
- IATA code : TPQ


MMEP - Amado Nervo National

CURRENT METAR :
  • 121448Z 00000KT 12SM SCT015 BKN070 24/21 A3009 RMK SLP153 52010 903 8/570

EXPIRED METARs :
  • 121350Z 00000KT 12SM SCT015 BKN070 23/20 A3007 RMK 8/570 VV LWR N
  • 121301Z 00000KT 12SM SCT015 BKN070 21/21 A3007 RMK 8/570

TAF TAF MMEP
Valid from the 12 at 06:00 until the 13 at 06:00 UTC


120452Z 1206/1306 33005KT P6SM BKN010
TEMPO 1210/1214 3SM BR
FM121800 36010KT P6SM SCT020
FM122200 06010KT P6SM BKN020 OVC080
TEMPO 1222/1302 2SM TSRA BKN010CB
MMFR FIR / North America



MET'MAP, your aeronautical weather chart ! - Copyright ORBIFLY December 2007 - Disclaimer

ORBIFLY MET'MAP TEAM :

Programming & Development : Alexandra Zaïnal
Concept & original design : Baudouin d'Aumeries
Assistance for programming : Marc-Olivier Méhu
Technical & hardware support : Manuel Goepfert

Contact : metmap@orbifly.com




SOURCES & CREDITS :

   NOAA       Earth
Advisory